User: anonymous   Login
Location: Bremen
(53.0793°N, 8.8017°E)
Time: 19:11:23
(UTC+02:00)
Language:

Transit 4A - Orbit

View from above orbital plane
View from above orbital plane
View from above satellite
View from above satellite

Ground track
Ground track

The orbit data is extracted from the following two-line orbital elements,

1   116U 61015A   24104.22029516  .00000111  00000-0  14427-3 0  9993
2   116  66.8116  35.6435 0068866 112.3438 248.4960 13.92018492186546
Epoch (UTC): 13 April 2024 05:17:13
Eccentricity: 0.0068866
inclination: 66.8116°
perigee height: 871 km
apogee height: 972 km
right ascension of ascending node: 35.6435°
argument of perigee: 112.3438°
revolutions per day: 13.92018492
mean anomaly at epoch: 248.4960°
orbit number at epoch: 18654

The dashed part of the orbit path shows where the satellite is in the earth's shadow,  

DLR